AFR333F KBOS-LFPG

Flight info

Callsign AFR333F
Flight time N/A
Altitude 39000
Route LBSTA8 LBSTA DCT EBONY DCT ELSIR/M084F400 DCT 50N050W 52N040W 53N030W 53N020W DCT LIMRI DCT XETBO/N0488F410 DCT UNLID/M084F410 DCT ARKIL/N0485F410 DCT ANNET UM25 INGOR/N0454F280 UM25 LUKIP
Aircraft A359/H-SDE2E3GHIJ3J4J5LM1ORWXY/LB1D1

Departure

Time 2026-05-07 15:43
Airport Boston Logan International Airport (KBOS)

Arrival

Time N/A
Airport Charles de Gaulle International Airport (LFPG)
Time Latitude Longitude Altitude Speed Heading
2026-05-07 15:04 42.37036 -71.01797 32 ft 0 kts 207°
2026-05-07 15:26 42.37041 -71.01794 32 ft 4 kts 205°
2026-05-07 15:26 42.37066 -71.01782 30 ft 4 kts 188°
2026-05-07 15:26 42.37093 -71.01780 31 ft 4 kts 173°
2026-05-07 15:26 42.37118 -71.01787 30 ft 4 kts 160°
2026-05-07 15:27 42.37142 -71.01803 30 ft 4 kts 143°
2026-05-07 15:27 42.37157 -71.01822 30 ft 0 kts 123°
2026-05-07 15:31 42.37135 -71.01776 31 ft 10 kts 123°
2026-05-07 15:31 42.37135 -71.01706 32 ft 8 kts 73°
2026-05-07 15:31 42.37139 -71.01630 32 ft 9 kts 108°
2026-05-07 15:32 42.37100 -71.01563 32 ft 10 kts 133°
2026-05-07 15:32 42.37046 -71.01488 32 ft 12 kts 136°
2026-05-07 15:32 42.36980 -71.01402 32 ft 14 kts 136°
2026-05-07 15:32 42.36907 -71.01302 32 ft 16 kts 135°
2026-05-07 15:33 42.36899 -71.01217 32 ft 8 kts 67°
2026-05-07 15:33 42.36940 -71.01157 32 ft 10 kts 39°
2026-05-07 15:33 42.37001 -71.01101 32 ft 11 kts 26°
2026-05-07 15:33 42.37079 -71.01051 32 ft 13 kts 26°
2026-05-07 15:34 42.37168 -71.00992 32 ft 15 kts 26°
2026-05-07 15:34 42.37269 -71.00927 32 ft 17 kts 26°
2026-05-07 15:34 42.37382 -71.00869 32 ft 18 kts 20°
2026-05-07 15:34 42.37505 -71.00809 32 ft 19 kts 19°
2026-05-07 15:35 42.37637 -71.00745 32 ft 21 kts 19°
2026-05-07 15:35 42.37770 -71.00681 32 ft 13 kts 20°
2026-05-07 15:35 42.37825 -71.00640 32 ft 9 kts 51°
2026-05-07 15:35 42.37826 -71.00556 32 ft 10 kts 111°
2026-05-07 15:36 42.37801 -71.00455 32 ft 12 kts 108°
2026-05-07 15:36 42.37770 -71.00340 32 ft 14 kts 110°
2026-05-07 15:36 42.37735 -71.00207 32 ft 16 kts 110°
2026-05-07 15:36 42.37709 -71.00109 32 ft 0 kts 110°
2026-05-07 15:40 42.37705 -71.00094 32 ft 7 kts 110°
2026-05-07 15:40 42.37672 -70.99974 32 ft 11 kts 114°
2026-05-07 15:41 42.37646 -70.99963 32 ft 4 kts 178°
2026-05-07 15:41 42.37621 -70.99969 32 ft 3 kts 199°
2026-05-07 15:42 42.37544 -71.00006 32 ft 40 kts 200°
2026-05-07 15:42 42.37064 -71.00236 33 ft 105 kts 200°
2026-05-07 15:42 42.36197 -71.00652 31 ft 158 kts 201°
2026-05-07 15:43 42.35117 -71.01213 525 ft 165 kts 204°
2026-05-07 15:43 42.34035 -71.01600 1289 ft 162 kts 187°
2026-05-07 15:43 42.32938 -71.01035 1609 ft 186 kts 136°
2026-05-07 15:43 42.32315 -70.99452 1971 ft 200 kts 110°
2026-05-07 15:44 42.31757 -70.97620 2311 ft 220 kts 113°
2026-05-07 15:44 42.31148 -70.95674 2808 ft 232 kts 108°
2026-05-07 15:44 42.31113 -70.93447 3142 ft 247 kts 75°
2026-05-07 15:44 42.31582 -70.91135 3614 ft 262 kts 71°
2026-05-07 15:45 42.32062 -70.88757 4226 ft 270 kts 73°
2026-05-07 15:45 42.32506 -70.86274 4927 ft 276 kts 75°
2026-05-07 15:45 42.32933 -70.83692 5515 ft 286 kts 76°
2026-05-07 15:45 42.33352 -70.81027 6165 ft 294 kts 77°
2026-05-07 15:46 42.34842 -70.75853 7415 ft 301 kts 41°
2026-05-07 15:46 42.36569 -70.74342 8105 ft 295 kts 14°
2026-05-07 15:46 42.38525 -70.73463 8853 ft 298 kts
2026-05-07 15:47 42.40525 -70.72664 9668 ft 302 kts
2026-05-07 15:47 42.42563 -70.71844 10305 ft 312 kts
2026-05-07 15:47 42.44709 -70.70977 10622 ft 332 kts
2026-05-07 15:47 42.46997 -70.70161 10948 ft 348 kts
2026-05-07 15:48 42.49427 -70.69483 11288 ft 366 kts
2026-05-07 15:48 42.51970 -70.68769 11749 ft 379 kts
2026-05-07 15:48 42.54580 -70.68010 12328 ft 388 kts
2026-05-07 15:48 42.57249 -70.67218 12967 ft 396 kts
2026-05-07 15:49 42.59965 -70.66407 13581 ft 404 kts
2026-05-07 15:49 42.62735 -70.65575 14168 ft 410 kts
2026-05-07 15:49 42.65528 -70.64732 14787 ft 414 kts
2026-05-07 15:49 42.68358 -70.63879 15415 ft 417 kts
2026-05-07 15:50 42.71208 -70.63183 16042 ft 418 kts
2026-05-07 15:50 42.74101 -70.62585 16651 ft 422 kts
2026-05-07 15:50 42.77006 -70.61788 17275 ft 433 kts
2026-05-07 15:50 42.79833 -70.60186 17917 ft 448 kts 25°
2026-05-07 15:51 42.82371 -70.57626 18485 ft 460 kts 39°
2026-05-07 15:51 42.84649 -70.54527 18992 ft 467 kts 44°
2026-05-07 15:51 42.86836 -70.51207 19422 ft 475 kts 46°
2026-05-07 15:51 42.89002 -70.47748 19884 ft 483 kts 47°
2026-05-07 15:52 42.91176 -70.44232 20428 ft 488 kts 47°
2026-05-07 15:52 42.93376 -70.40690 21159 ft 488 kts 46°
2026-05-07 15:52 42.95584 -70.37164 21786 ft 491 kts 46°
2026-05-07 15:52 42.97825 -70.33622 22300 ft 496 kts 45°
2026-05-07 15:53 43.00103 -70.30043 22829 ft 501 kts 45°
2026-05-07 15:53 43.02403 -70.26439 23344 ft 506 kts 45°
2026-05-07 15:53 43.04370 -70.23359 23703 ft 510 kts 45°
2026-05-07 15:53 43.05126 -70.22174 23822 ft 512 kts 45°
2026-05-07 15:54 43.07489 -70.18470 24080 ft 521 kts 44°
2026-05-07 15:54 43.09898 -70.14690 24294 ft 531 kts 44°
2026-05-07 15:54 43.12331 -70.10861 24697 ft 536 kts 44°
2026-05-07 15:54 43.14788 -70.06984 25082 ft 541 kts 44°
2026-05-07 15:55 43.17233 -70.03120 25445 ft 547 kts 44°
2026-05-07 15:55 43.19769 -69.99107 25815 ft 553 kts 44°
2026-05-07 15:55 43.22267 -69.95150 26273 ft 557 kts 44°
2026-05-07 15:55 43.24801 -69.91126 26728 ft 560 kts 44°
2026-05-07 15:56 43.27366 -69.87051 27050 ft 567 kts 44°
2026-05-07 15:56 43.29956 -69.82932 27391 ft 572 kts 44°
2026-05-07 15:56 43.32568 -69.78772 27739 ft 578 kts 44°
2026-05-07 15:56 43.35207 -69.74563 28004 ft 583 kts 44°
2026-05-07 15:57 43.37864 -69.70317 28380 ft 588 kts 44°
2026-05-07 15:57 43.40544 -69.66028 28752 ft 593 kts 44°
2026-05-07 15:57 43.43240 -69.61707 29089 ft 598 kts 44°
2026-05-07 15:57 43.45964 -69.57335 29406 ft 603 kts 44°
2026-05-07 15:58 43.48705 -69.52931 29710 ft 608 kts 44°
2026-05-07 15:58 43.51463 -69.48491 30062 ft 613 kts 44°
2026-05-07 15:58 43.54237 -69.44015 30455 ft 614 kts 44°
2026-05-07 15:58 43.57010 -69.39533 30768 ft 617 kts 44°
2026-05-07 15:59 43.58857 -69.36544 30944 ft 619 kts 44°
2026-05-07 15:59 43.61657 -69.32010 31211 ft 622 kts 44°
2026-05-07 15:59 43.64468 -69.27451 31477 ft 625 kts 44°
2026-05-07 15:59 43.67286 -69.22874 31784 ft 627 kts 44°
2026-05-07 16:00 43.70111 -69.18276 32110 ft 628 kts 44°
2026-05-07 16:00 43.72951 -69.13647 32342 ft 632 kts 44°
2026-05-07 16:00 43.75799 -69.09001 32556 ft 634 kts 44°
2026-05-07 16:00 43.78655 -69.04332 32814 ft 636 kts 44°
2026-05-07 16:01 43.81509 -68.99657 33114 ft 637 kts 44°
2026-05-07 16:01 43.84363 -68.94973 33531 ft 635 kts 44°
2026-05-07 16:01 43.87208 -68.90294 33862 ft 635 kts 44°
2026-05-07 16:01 43.90050 -68.85615 34201 ft 633 kts 44°
2026-05-07 16:02 43.92863 -68.80974 34664 ft 627 kts 44°
2026-05-07 16:02 43.95663 -68.76344 35183 ft 621 kts 45°
2026-05-07 16:02 43.98413 -68.71791 35861 ft 611 kts 45°
2026-05-07 16:02 44.01116 -68.67306 36515 ft 602 kts 45°
2026-05-07 16:03 44.03801 -68.62853 36896 ft 599 kts 45°
2026-05-07 16:03 44.06473 -68.58420 37163 ft 598 kts 45°
2026-05-07 16:03 44.09147 -68.53981 37370 ft 597 kts 45°
2026-05-07 16:03 44.11809 -68.49552 37686 ft 595 kts 46°
2026-05-07 16:04 44.14440 -68.45162 38219 ft 588 kts 46°
2026-05-07 16:04 44.17013 -68.40859 38541 ft 584 kts 46°
2026-05-07 16:04 44.19611 -68.36511 38720 ft 584 kts 46°
2026-05-07 16:05 44.24856 -68.27720 38754 ft 588 kts 46°